Regional Weather Roundup
Issued by NWS

Home | Current Version | Previous Version | Graphics & Text | Print | Product List | Glossary On
Versions: 1 2 3 4 5 6 7 8 9 10 11 12 13 14 15 16 17 18 19 20 21 22 23 24 25 26 27 28 29 30 31 32 33 34 35 36 37 38 39 40 41 42 43 44 45 46 47 48 49 50
016
ASUS45 KBOU 221510
RWRCO

WEATHER ROUNDUP FOR COLORADO
NATIONAL WEATHER SERVICE PUEBLO CO
900 AM MDT SUN APR 22 2018

NOTE: "FAIR" INDICATES FEW OR NO CLOUDS BELOW 12000 FEET WITH NO
SIGNIFICANT WEATHER AND/OR OBSTRUCTIONS TO VISIBILITY.

COZ001>005-013-030-031-221600-
...NORTHWEST COLORADO...

CITY           SKY/WX    TMP DP  RH WIND       PRES   REMARKS
CRAIG          SUNNY     46  37  71 VRB3      30.25S
HAYDEN         SUNNY     42  34  73 E10       30.26F
MEEKER         SUNNY     44  33  65 CALM      30.25F
RABBIT EARS PA NOT AVBL
STEAMBOAT SPGS FAIR      36  33  90 CALM      30.27S
WALDEN         FAIR      36  30  80 CALM      30.29S
$$

COZ006>008-011-221600-
...WEST CENTRAL VALLEYS...

CITY           SKY/WX    TMP DP  RH WIND       PRES   REMARKS
GRAND JUNCTION SUNNY     53  36  52 SE14      30.22S
MONTROSE       SUNNY     46  29  51 CALM      30.26F
EAGLE          FOG       34  31  88 W3        30.33F VSB 1/4
RIFLE          SUNNY     43  36  76 E5        30.26F
DELTA          NOT AVBL
NUCLA          NOT AVBL
$$

COZ017>023-064>068-221600-
...SOUTHWEST COLORADO...

CITY           SKY/WX    TMP DP  RH WIND       PRES   REMARKS
DURANGO        SUNNY     47  20  34 SE8       30.22S
CORTEZ         SUNNY     52  24  33 E5        30.19F
PAGOSA SPRINGS FAIR      45  19  34 CALM      30.25S
TELLURIDE      SUNNY     41  28  59 CALM      30.33S
WOLF CREEK PAS SUNNY     32  19  59 N8        30.42S WCI  25
$$

COZ009-010-012-014-032>034-037-058>063-221600-
...CENTRAL COLORADO...

CITY           SKY/WX    TMP DP  RH WIND       PRES   REMARKS
ASPEN          SUNNY     40  31  70 CALM      30.29S
BUENA VISTA    FAIR      42  29  61 S7        30.27F
COPPER MTN     NOT AVBL
BERTHOUD PASS  CLOUDY    23  12  63 MISG      30.38S
COTTONWOOD PAS SUNNY     46  30  53 E5        30.32R
GUNNISON       SUNNY     36  27  69 CALM      30.33F
KREMMLING      SUNNY     39  32  75 CALM      30.32S
LEADVILLE      SUNNY     37  26  64 CALM      30.32S
MONARCH PASS   SUNNY     27  23  86 W9        30.48S WCI  17
SALIDA         FAIR      41  30  66 CALM      30.35S
SUNLIGHT       SUNNY     30  28  93 NE5       30.40S WCI  25
WILKERSON PASS SUNNY     36  21  55 NE8G17    30.37R
$$

COZ069>075-221600-
...SAN LUIS VALLEY/SANGRE DE CRISTO MOUNTAINS...

CITY           SKY/WX    TMP DP  RH WIND       PRES   REMARKS
ALAMOSA        SUNNY     42  25  50 CALM      30.27S
DEL NORTE      FAIR      43  23  44 CALM      30.28S
LA VETA PASS   SUNNY     39  27  60 W6        30.43R
SAGUACHE       NOT AVBL
$$

COZ035-036-038>040-221600-
...NORTHERN COLORADO FRONT RANGE...

CITY           SKY/WX    TMP DP  RH WIND       PRES   REMARKS
DENVER INTL AP MOSUNNY   42  35  76 CALM      30.18S
DMNS CITY PARK NOT AVBL
AURORA         SUNNY     43  36  77 CALM      30.19R
FRONT RANGE AP SUNNY     43  36  75 CALM      30.19S
ERIE MUNI ARPT FAIR      40  37  86 CALM      30.25R
BOULDER MUN AP FAIR      43  36  75 CALM      30.18S
CENTENNIAL     MOSUNNY   46  38  73 N5        30.18R
BROOMFIELD     SUNNY     41  36  81 CALM      30.19R
LOVELAND       FOG       37  36  96 S7        30.20R VSB<1/4
LONGMONT       FAIR      43  39  85 CALM      30.21S
$$

COZ041-046-047-076>085-087-088-221600-
...PIKES PEAK/PALMER DIVIDE AND SOUTHERN FOOTHILLS...

CITY           SKY/WX    TMP DP  RH WIND       PRES   REMARKS
COLO. SPRINGS  MOSUNNY   38  36  92 SW5       30.19S
A. F. ACADEMY  SUNNY     50  35  55 N3        30.18S
SCHRIEVER AFB  NOT AVBL
CHEYENNE MTN   NOT AVBL
ELLICOTT       CLOUDY   N/A N/A N/A CALM      30.18S
FALCON         FAIR      52  29  41 N10       30.21R
FORT CARSON    FOG       37  37  99 E3        30.19R VSB 1
LIMON          CLOUDY    35  35 100 S6        30.20S WCI  30
MONUMENT HILL  SUNNY     46  34  61 NW7       30.22R
CANON CITY     PTSUNNY   39  39 100 E5        30.18S
WALSENBURG     FAIR      59  28  31 NW9       30.18S
TRINIDAD       SUNNY     47  33  58 CALM      30.19R
$$

COZ042>045-048>051-090-091-221600-
...NORTHEAST COLORADO...

CITY           SKY/WX    TMP DP  RH WIND       PRES   REMARKS
GREELEY ARPT   FOG       37  36  96 S3        30.21R VSB<1/4
AKRON          SUNNY     42  38  85 SE6       30.19S
BURLINGTON     SUNNY     44  37  76 SW6       30.21S
WRAY           FAIR      46  37  71 SE3       30.23R
YUMA           NOT AVBL
STERLING       NOT AVBL
HOLYOKE        FAIR      46  37  71 S5        30.21S
FORT MORGAN    FAIR      41  34  76 CALM      30.20S
$$

COZ086-089-092>099-221600-
...SOUTHEAST COLORADO...

CITY           SKY/WX    TMP DP  RH WIND       PRES   REMARKS
PUEBLO         CLOUDY    41  38  89 SE3       30.21R
LA JUNTA       CLOUDY    43  40  89 CALM      30.21S
LAMAR          CLOUDY    41  36  82 E7        30.22R
SPRINGFIELD      N/A     40  38  93 E3        30.21S
$$





USA.gov is the U.S. government's official web portal to all federal, state and local government web resources and services.